RYR771 EGCC-LPFR

Flight info

Callsign RYR771
Flight time N/A
Altitude 23000
Route KUXEM1Y KUXEM P17 BEPHE/N0448F360 DCT OSSEP DCT ELNIF DCT ZESPE DCT KLAKI DCT SALCO/N0447F350 DCT ERWAN/N0452F370 DCT BALDA DCT ABUPI DCT ALAGU ALAGU6K
Aircraft B738/M-SDE2E3FGHIRWXY/LB1

Departure

Time 2026-05-04 18:22
Airport Manchester Airport (EGCC)

Arrival

Time N/A
Airport Faro - Gago Coutinho International Airport (LPFR)
Time Latitude Longitude Altitude Speed Heading
2026-05-04 18:22 53.30681 -2.53878 5004 ft 265 kts 253°
2026-05-04 18:22 53.30130 -2.56832 5016 ft 266 kts 253°
2026-05-04 18:23 53.29531 -2.59769 5007 ft 268 kts 248°
2026-05-04 18:23 53.28753 -2.62598 5011 ft 268 kts 245°
2026-05-04 18:23 53.27715 -2.65161 4994 ft 269 kts 223°
2026-05-04 18:23 53.26233 -2.67051 5005 ft 269 kts 216°
2026-05-04 18:24 53.24683 -2.68813 5034 ft 270 kts 215°
2026-05-04 18:24 53.23120 -2.70584 5578 ft 273 kts 215°
2026-05-04 18:24 53.21559 -2.72363 6532 ft 271 kts 216°
2026-05-04 18:24 53.20000 -2.74147 7375 ft 273 kts 216°
2026-05-04 18:25 53.18428 -2.75954 8143 ft 277 kts 216°
2026-05-04 18:25 53.16837 -2.77786 8928 ft 280 kts 216°
2026-05-04 18:25 53.15228 -2.79641 9733 ft 282 kts 216°
2026-05-04 18:25 53.13598 -2.81519 10408 ft 289 kts 216°
2026-05-04 18:26 53.11879 -2.83497 10606 ft 313 kts 216°
2026-05-04 18:26 53.10029 -2.85624 10829 ft 333 kts 214°
2026-05-04 18:26 53.07907 -2.87325 11300 ft 345 kts 196°
2026-05-04 18:26 53.05516 -2.87796 12048 ft 349 kts 177°
2026-05-04 18:27 53.03104 -2.87269 12821 ft 351 kts 172°
2026-05-04 18:27 53.00679 -2.86570 13508 ft 356 kts 171°
2026-05-04 18:27 52.98233 -2.85844 14168 ft 359 kts 171°
2026-05-04 18:27 52.95760 -2.85126 14820 ft 362 kts 171°
2026-05-04 18:28 52.93272 -2.84427 15486 ft 364 kts 171°
2026-05-04 18:28 52.90774 -2.83743 16160 ft 365 kts 172°
2026-05-04 18:28 52.88252 -2.83062 16776 ft 369 kts 172°
2026-05-04 18:28 52.85701 -2.82378 17362 ft 373 kts 172°
2026-05-04 18:29 52.83131 -2.81691 17984 ft 376 kts 172°
2026-05-04 18:29 52.80536 -2.80998 18575 ft 379 kts 172°
2026-05-04 18:29 52.77934 -2.80295 19202 ft 378 kts 171°
2026-05-04 18:29 52.75363 -2.79586 19950 ft 375 kts 171°
2026-05-04 18:30 52.70233 -2.78174 21302 ft 372 kts 171°
2026-05-04 18:30 52.67674 -2.77494 21953 ft 372 kts 171°
2026-05-04 18:30 52.65128 -2.76828 22619 ft 370 kts 171°
2026-05-04 18:31 52.62592 -2.76165 23051 ft 371 kts 172°
2026-05-04 18:31 52.60024 -2.75810 23037 ft 369 kts 181°
2026-05-04 18:31 52.58322 -2.75936 23056 ft 368 kts 183°
2026-05-04 18:31 52.54935 -2.76229 23046 ft 367 kts 183°
2026-05-04 18:32 52.52387 -2.76460 23055 ft 366 kts 184°
2026-05-04 18:32 52.50675 -2.76649 23053 ft 366 kts 185°
2026-05-04 18:32 52.48135 -2.76919 23043 ft 365 kts 184°
2026-05-04 18:32 52.45602 -2.77158 23048 ft 364 kts 184°
2026-05-04 18:33 52.43070 -2.77382 23041 ft 364 kts 184°
2026-05-04 18:33 52.40548 -2.77600 23043 ft 363 kts 184°
2026-05-04 18:33 52.38033 -2.77815 23038 ft 362 kts 184°
2026-05-04 18:33 52.35519 -2.78031 23033 ft 361 kts 184°
2026-05-04 18:34 52.33009 -2.78246 23043 ft 360 kts 185°
2026-05-04 18:34 52.30511 -2.78460 23038 ft 360 kts 185°
2026-05-04 18:34 52.28009 -2.78675 23039 ft 359 kts 185°
2026-05-04 18:34 52.25516 -2.78889 23038 ft 359 kts 185°
2026-05-04 18:35 52.23024 -2.79103 23044 ft 361 kts 185°
2026-05-04 18:35 52.20481 -2.79323 23142 ft 372 kts 185°
2026-05-04 18:35 52.17854 -2.79549 23261 ft 384 kts 185°
2026-05-04 18:35 52.15142 -2.79782 23372 ft 396 kts 185°
2026-05-04 18:36 52.12351 -2.80020 23471 ft 407 kts 185°
2026-05-04 18:36 52.09483 -2.80264 23565 ft 417 kts 185°
2026-05-04 18:36 52.06553 -2.80513 23650 ft 427 kts 185°
2026-05-04 18:36 52.03554 -2.80768 23732 ft 435 kts 185°
2026-05-04 18:37 52.00509 -2.81027 23869 ft 442 kts 184°
2026-05-04 18:37 51.97426 -2.81289 24105 ft 445 kts 184°
2026-05-04 18:37 51.94335 -2.81551 24484 ft 444 kts 184°
2026-05-04 18:37 51.91253 -2.81812 24913 ft 443 kts 184°
2026-05-04 18:38 51.88176 -2.82073 25307 ft 442 kts 184°
2026-05-04 18:38 51.85101 -2.82357 25650 ft 443 kts 186°
2026-05-04 18:38 51.82038 -2.82899 26018 ft 443 kts 188°
2026-05-04 18:38 51.78999 -2.83560 26422 ft 442 kts 188°
2026-05-04 18:39 51.75948 -2.84258 26825 ft 441 kts 188°
2026-05-04 18:39 51.72903 -2.84947 27221 ft 441 kts 188°
2026-05-04 18:39 51.69869 -2.85615 27620 ft 441 kts 188°
2026-05-04 18:39 51.66832 -2.86268 28047 ft 439 kts 187°
2026-05-04 18:40 51.63802 -2.86909 28479 ft 438 kts 187°
2026-05-04 18:40 51.60781 -2.87545 28897 ft 437 kts 187°
2026-05-04 18:40 51.57768 -2.88180 29317 ft 437 kts 187°
2026-05-04 18:40 51.54758 -2.88813 29758 ft 435 kts 187°
2026-05-04 18:41 51.51762 -2.89447 30167 ft 434 kts 187°
2026-05-04 18:41 51.48782 -2.90079 30502 ft 433 kts 187°
2026-05-04 18:41 51.45788 -2.90714 30809 ft 433 kts 187°
2026-05-04 18:41 51.42806 -2.91346 31120 ft 432 kts 187°
2026-05-04 18:42 51.39828 -2.91976 31430 ft 432 kts 187°
2026-05-04 18:42 51.36850 -2.92605 31732 ft 431 kts 187°
2026-05-04 18:42 51.33869 -2.93233 32019 ft 431 kts 187°
2026-05-04 18:42 51.30896 -2.93859 32302 ft 431 kts 187°
2026-05-04 18:43 51.27916 -2.94486 32590 ft 431 kts 187°
2026-05-04 18:43 51.24944 -2.95110 32850 ft 432 kts 187°
2026-05-04 18:43 51.21962 -2.95735 33116 ft 432 kts 187°
2026-05-04 18:43 51.18983 -2.96359 33378 ft 432 kts 187°
2026-05-04 18:44 51.16000 -2.96983 33615 ft 432 kts 186°
2026-05-04 18:44 51.14031 -2.97395 33783 ft 433 kts 186°
2026-05-04 18:44 51.10035 -2.98229 34088 ft 433 kts 186°
2026-05-04 18:44 51.07044 -2.98852 34291 ft 433 kts 186°
2026-05-04 18:45 51.04097 -2.99465 34484 ft 433 kts 186°
2026-05-04 18:45 51.01066 -3.00095 34680 ft 434 kts 186°
2026-05-04 18:45 50.98113 -3.00708 34843 ft 435 kts 186°
2026-05-04 18:45 50.95106 -3.01331 35024 ft 435 kts 186°
2026-05-04 18:46 50.92102 -3.01953 35212 ft 435 kts 187°
2026-05-04 18:46 50.89100 -3.02574 35386 ft 436 kts 187°
2026-05-04 18:46 50.86088 -3.03196 35548 ft 437 kts 187°
2026-05-04 18:46 50.83075 -3.03817 35729 ft 437 kts 187°
2026-05-04 18:47 50.80057 -3.04438 35906 ft 436 kts 187°
2026-05-04 18:47 50.74023 -3.05679 35989 ft 439 kts 187°
2026-05-04 18:48 50.67958 -3.06922 35999 ft 439 kts 187°
2026-05-04 18:48 50.61903 -3.08160 36000 ft 439 kts 187°
2026-05-04 18:49 50.55843 -3.09396 35999 ft 439 kts 187°
2026-05-04 18:49 50.49791 -3.10628 35998 ft 438 kts 187°
2026-05-04 18:50 50.43743 -3.11855 35997 ft 438 kts 187°
2026-05-04 18:50 50.37706 -3.13170 35992 ft 438 kts 192°
2026-05-04 18:51 50.31958 -3.16287 36004 ft 438 kts 201°
2026-05-04 18:51 50.26326 -3.19963 35999 ft 438 kts 202°
2026-05-04 18:52 50.20690 -3.23594 35998 ft 438 kts 201°
2026-05-04 18:52 50.15036 -3.27178 35998 ft 438 kts 201°
2026-05-04 18:53 50.09377 -3.30740 35994 ft 439 kts 201°
2026-05-04 18:53 50.03715 -3.34294 35999 ft 439 kts 201°
2026-05-04 18:54 49.98054 -3.37840 35998 ft 439 kts 201°
2026-05-04 18:54 49.92421 -3.41360 36000 ft 439 kts 201°
2026-05-04 18:55 49.86750 -3.44896 36004 ft 439 kts 201°
2026-05-04 18:55 49.78234 -3.50189 36003 ft 440 kts 201°
2026-05-04 18:56 49.72541 -3.53633 35997 ft 439 kts 198°
2026-05-04 18:56 49.66716 -3.56489 36008 ft 439 kts 196°
2026-05-04 18:57 49.60868 -3.59209 36000 ft 439 kts 196°
2026-05-04 18:57 49.55020 -3.61952 36000 ft 439 kts 196°
2026-05-04 18:58 49.49178 -3.64719 36003 ft 439 kts 196°
2026-05-04 18:58 49.43347 -3.67489 36000 ft 439 kts 196°
2026-05-04 18:59 49.37517 -3.70254 36002 ft 439 kts 196°
2026-05-04 18:59 49.31682 -3.73014 36003 ft 439 kts 196°
2026-05-04 19:00 49.25839 -3.75770 36001 ft 439 kts 196°
2026-05-04 19:00 49.19988 -3.78523 36002 ft 440 kts 196°
2026-05-04 19:01 49.14139 -3.81267 35998 ft 440 kts 196°
2026-05-04 19:01 49.08321 -3.83991 36000 ft 440 kts 196°
2026-05-04 19:02 49.02465 -3.86726 35997 ft 440 kts 196°
2026-05-04 19:02 48.96616 -3.89451 36000 ft 440 kts 196°
2026-05-04 19:03 48.90762 -3.92171 35997 ft 440 kts 196°
2026-05-04 19:03 48.84910 -3.94884 36002 ft 439 kts 196°
2026-05-04 19:04 48.79061 -3.97589 35998 ft 439 kts 196°
2026-05-04 19:04 48.73217 -4.00285 35996 ft 439 kts 196°
2026-05-04 19:05 48.67370 -4.02976 35995 ft 439 kts 196°
2026-05-04 19:05 48.61524 -4.05659 35995 ft 439 kts 196°
2026-05-04 19:06 48.55679 -4.08336 35994 ft 439 kts 196°
2026-05-04 19:06 48.49868 -4.10991 35994 ft 439 kts 196°
2026-05-04 19:07 48.44013 -4.13659 36023 ft 440 kts 196°
2026-05-04 19:07 48.38149 -4.16325 36016 ft 440 kts 196°
2026-05-04 19:08 48.32279 -4.18988 35996 ft 441 kts 196°
2026-05-04 19:08 48.26404 -4.21646 35995 ft 441 kts 196°
2026-05-04 19:09 48.20523 -4.24301 35996 ft 442 kts 196°
2026-05-04 19:09 48.14638 -4.26951 35993 ft 442 kts 196°
2026-05-04 19:10 48.08749 -4.29596 35993 ft 442 kts 196°
2026-05-04 19:10 48.02870 -4.32232 35995 ft 441 kts 196°
2026-05-04 19:11 47.96989 -4.34861 35997 ft 440 kts 196°
2026-05-04 19:11 47.91121 -4.37478 35994 ft 440 kts 196°
2026-05-04 19:12 47.82344 -4.41382 35996 ft 438 kts 195°
2026-05-04 19:13 47.76544 -4.43954 35985 ft 437 kts 195°
2026-05-04 19:13 47.70723 -4.46529 35992 ft 436 kts 195°
2026-05-04 19:14 47.64916 -4.49091 36000 ft 435 kts 195°
2026-05-04 19:14 47.59115 -4.51646 36003 ft 434 kts 195°
2026-05-04 19:15 47.53322 -4.54191 36001 ft 434 kts 195°
2026-05-04 19:15 47.47533 -4.56728 36002 ft 434 kts 195°
2026-05-04 19:16 47.41741 -4.59261 35997 ft 434 kts 195°
2026-05-04 19:16 47.35947 -4.61789 35998 ft 435 kts 195°
2026-05-04 19:17 47.30144 -4.64314 35998 ft 435 kts 195°
2026-05-04 19:17 47.26285 -4.65991 36000 ft 436 kts 195°